period_start,C,m1,H,J0,J1,J2,J3,J4,J5,JA,JB,JC,JD,JJ,JK,JN,#
2013-07-15 00:00:30,-0.04,0.05,0.00,29.27,31.72,33.50,5.85,32.96,1013.69,2039.05,3429.92,3321.90,3608.07,349.78,316.14,5.92,0000 0000 0000 0000 000000
2013-07-15 00:01:30,-0.02,0.05,0.00,29.26,31.72,33.53,5.78,32.38,1013.69,2039.04,3429.96,3321.92,3608.05,350.39,316.70,5.93,0000 0000 0000 0000 000000
2013-07-15 00:02:30,-0.00,0.05,0.00,29.25,31.72,33.58,5.88,32.58,1013.69,2039.05,3429.97,3321.94,3608.10,350.45,316.61,5.93,0000 0000 0000 0000 000000
2013-07-15 00:03:30,0.02,0.05,0.00,29.27,31.72,33.59,5.73,32.79,1013.69,2039.10,3429.98,3321.97,3608.26,349.11,315.67,5.94,0000 0000 0000 0000 000000
2013-07-15 00:04:30,-0.01,0.05,0.00,29.29,31.72,33.65,5.73,33.00,1013.69,2039.08,3429.99,3321.97,3608.28,349.43,316.08,5.95,0000 0000 0000 0000 000000
2013-07-15 00:05:31,-0.01,0.05,0.00,29.26,31.71,33.58,5.67,32.58,1013.69,2039.09,3429.99,3321.98,3608.35,349.75,316.58,5.95,0000 0000 0000 0000 000000
2013-07-15 00:06:31,-0.00,0.05,0.00,29.25,31.70,33.57,5.93,32.96,1013.69,2039.08,3429.98,3321.99,3608.42,350.01,316.54,5.96,0000 0000 0000 0000 000000
2013-07-15 00:07:31,0.00,0.05,0.00,29.22,31.70,33.62,5.84,32.88,1013.69,2039.05,3429.99,3321.97,3608.41,349.95,316.35,5.96,0000 0000 0000 0000 000000
2013-07-15 00:08:31,-0.03,0.05,0.00,29.24,31.70,33.55,5.90,32.88,1013.69,2039.06,3429.99,3321.98,3608.45,350.50,317.10,5.97,0000 0000 0000 0000 000000
2013-07-15 00:09:31,0.03,0.05,0.00,29.22,31.70,33.59,5.84,32.46,1013.69,2039.11,3429.99,3321.98,3608.46,350.19,316.66,5.97,0000 0000 0000 0000 000000
2013-07-15 00:10:31,0.01,0.05,0.00,29.19,31.70,33.61,5.87,32.63,1013.69,2039.11,3429.99,3321.99,3608.60,349.85,316.45,5.98,0000 0000 0000 0000 000000
2013-07-15 00:11:32,-0.02,0.05,0.00,29.21,31.70,33.56,5.88,32.67,1013.69,2039.16,3429.99,3321.99,3608.70,350.55,316.98,5.99,0000 0000 0000 0000 000000
2013-07-15 00:12:32,0.02,0.05,0.00,29.23,31.70,33.56,5.98,33.00,1013.69,2039.21,3429.99,3321.99,3608.79,350.44,316.78,5.99,0000 0000 0000 0000 000000
2013-07-15 00:13:32,0.07,0.05,0.00,29.21,31.70,33.52,5.83,32.58,1013.69,2039.30,3429.99,3321.99,3608.83,350.27,316.39,6.00,0000 0000 0000 0000 000000
2013-07-15 00:14:32,0.01,0.05,0.00,29.20,31.69,33.49,5.86,32.63,1013.69,2039.33,3429.99,3321.99,3608.86,350.58,317.02,6.00,0000 0000 0000 0000 000000
2013-07-15 00:15:32,0.00,0.05,0.00,29.23,31.68,33.50,5.84,32.79,1013.69,2039.22,3429.99,3321.99,3608.84,349.79,316.19,6.01,0000 0000 0000 0000 000000
2013-07-15 00:16:33,-0.04,0.05,0.00,29.20,31.68,33.50,5.85,32.88,1013.69,2039.23,3429.99,3321.99,3608.90,349.64,316.07,6.02,0000 0000 0000 0000 000000
2013-07-15 00:17:33,-0.01,0.05,0.00,29.18,31.67,33.53,5.74,32.67,1013.69,2039.24,3429.99,3321.99,3608.94,349.57,316.02,6.02,0000 0000 0000 0000 000000
2013-07-15 00:18:33,0.06,0.05,0.00,29.15,31.67,33.57,5.88,33.13,1013.69,2039.38,3429.99,3321.99,3608.94,349.72,316.20,6.03,0000 0000 0000 0000 000000
2013-07-15 00:19:33,0.02,0.05,0.00,29.14,31.67,33.52,5.77,32.42,1013.69,2039.43,3429.99,3321.99,3608.94,350.33,316.79,6.03,0000 0000 0000 0000 000000
2013-07-15 00:20:33,0.14,0.05,0.00,29.18,31.67,33.51,5.85,32.92,1013.69,2039.59,3429.99,3321.99,3608.97,349.87,316.31,6.04,0000 0000 0000 0000 000000
2013-07-15 00:21:33,0.06,0.05,0.00,29.20,31.67,33.59,5.86,33.17,1013.69,2039.69,3429.99,3321.99,3608.97,349.52,315.93,6.05,0000 0000 0000 0000 000000
2013-07-15 00:22:34,0.07,0.05,0.00,29.19,31.67,33.61,5.72,32.29,1013.69,2039.72,3430.02,3321.99,3608.97,350.06,316.48,6.05,0000 0000 0000 0000 000000
2013-07-15 00:23:34,0.04,0.05,0.00,29.24,31.67,33.54,5.79,32.88,1013.69,2039.80,3430.03,3321.99,3608.99,350.09,316.45,6.06,0000 0000 0000 0000 000000
2013-07-15 00:24:34,0.05,0.05,0.00,29.20,31.66,33.57,5.98,33.04,1013.69,2039.87,3430.01,3322.00,3608.99,350.68,317.03,6.06,0000 0000 0000 0000 000000
2013-07-15 00:25:34,0.04,0.05,0.00,29.16,31.65,33.58,5.86,32.46,1013.69,2039.89,3430.02,3322.04,3608.99,350.61,316.82,6.07,0000 0000 0000 0000 000000
2013-07-15 00:26:35,-0.00,0.05,0.00,29.15,31.65,33.48,5.76,33.04,1013.69,2039.90,3430.07,3322.07,3608.99,349.96,316.44,6.07,0000 0000 0000 0000 000000
2013-07-15 00:27:35,-0.00,0.05,0.00,29.12,31.65,33.43,5.73,33.04,1013.70,2039.92,3430.09,3322.06,3608.99,349.72,316.24,6.08,0000 0000 0000 0000 000000
2013-07-15 00:28:35,0.02,0.05,0.00,29.10,31.65,33.48,5.78,32.38,1013.69,2039.95,3430.19,3322.14,3608.99,349.86,316.39,6.09,0000 0000 0000 0000 000000
2013-07-15 00:29:35,-0.02,0.05,0.00,29.09,31.65,33.44,5.73,32.25,1013.69,2039.95,3430.26,3322.25,3608.99,349.74,316.43,6.09,0000 0000 0000 0000 000000
2013-07-15 00:30:35,-0.03,0.05,0.00,29.12,31.65,33.52,5.72,32.88,1013.69,2039.95,3430.38,3322.36,3608.99,349.00,315.81,6.10,0000 0000 0000 0000 000000
2013-07-15 00:31:36,-0.02,0.05,0.00,29.20,31.65,33.55,5.89,32.46,1013.69,2039.96,3430.32,3322.37,3608.99,350.19,316.84,6.10,0000 0000 0000 0000 000000
2013-07-15 00:32:36,0.01,0.05,0.00,29.21,31.65,33.54,5.83,32.25,1013.69,2039.98,3430.35,3322.36,3608.99,350.34,316.70,6.11,0000 0000 0000 0000 000000
2013-07-15 00:33:36,0.01,0.05,0.00,29.18,31.64,33.55,5.88,32.96,1013.69,2039.98,3430.37,3322.41,3609.00,349.73,316.19,6.12,0000 0000 0000 0000 000000
2013-07-15 00:34:36,-0.01,0.05,0.00,29.20,31.63,33.60,5.72,33.04,1013.69,2039.96,3430.28,3322.46,3609.00,349.24,315.55,6.12,0000 0000 0000 0000 000000
2013-07-15 00:35:36,-0.00,0.05,0.00,29.16,31.62,33.52,5.71,32.79,1013.69,2039.98,3430.19,3322.39,3609.00,349.84,315.94,6.13,0000 0000 0000 0000 000000
2013-07-15 00:36:37,0.02,0.05,0.00,29.13,31.62,33.50,5.83,32.63,1013.69,2039.99,3430.22,3322.38,3609.01,350.52,316.96,6.13,0000 0000 0000 0000 000000
2013-07-15 00:37:37,-0.00,0.05,0.00,29.14,31.62,33.52,5.72,32.79,1013.69,2039.99,3430.31,3322.52,3609.02,350.13,316.51,6.14,0000 0000 0000 0000 000000
2013-07-15 00:38:37,-0.03,0.05,0.00,29.22,31.62,33.52,5.88,32.83,1013.69,2039.99,3430.35,3322.60,3609.03,350.68,317.01,6.14,0000 0000 0000 0000 000000
2013-07-15 00:39:37,-0.01,0.05,0.00,29.20,31.62,33.55,5.73,32.88,1013.69,2039.99,3430.42,3322.66,3609.02,349.80,316.23,6.15,0000 0000 0000 0000 000000
2013-07-15 00:40:37,-0.02,0.05,0.00,29.17,31.62,33.60,5.70,32.33,1013.69,2039.99,3430.60,3322.80,3609.04,349.31,315.82,6.16,0000 0000 0000 0000 000000
2013-07-15 00:41:37,-0.06,0.05,0.00,29.15,31.62,33.58,5.74,32.46,1013.69,2039.99,3430.73,3322.86,3609.07,350.04,316.06,6.16,0000 0000 0000 0000 000000
2013-07-15 00:42:38,-0.03,0.05,0.00,29.12,31.62,33.42,5.76,33.17,1013.69,2039.99,3430.55,3322.78,3609.09,350.76,316.92,6.17,0000 0000 0000 0000 000000
2013-07-15 00:43:38,0.05,0.05,0.00,29.10,31.61,33.43,5.89,33.17,1013.69,2039.99,3430.42,3322.73,3609.11,350.14,316.64,6.17,0000 0000 0000 0000 000000
2013-07-15 00:44:38,0.01,0.05,0.00,29.08,31.60,33.46,5.92,33.33,1013.69,2039.99,3430.43,3322.72,3609.10,350.25,316.76,6.18,0000 0000 0000 0000 000000
2013-07-15 00:45:38,0.00,0.05,0.00,29.08,31.60,33.43,5.86,33.17,1013.69,2039.99,3430.61,3322.84,3609.12,350.71,317.18,6.19,0000 0000 0000 0000 000000
2013-07-15 00:46:38,-0.04,0.05,0.00,29.07,31.60,33.44,5.73,32.42,1013.69,2039.99,3430.75,3322.90,3609.26,350.10,316.87,6.19,0000 0000 0000 0000 000000
2013-07-15 00:47:39,-0.05,0.05,0.00,29.09,31.60,33.50,5.83,32.29,1013.68,2039.99,3430.84,3322.95,3609.38,349.45,315.92,6.20,0000 0000 0000 0000 000000
2013-07-15 00:48:39,-0.02,0.05,0.00,29.12,31.60,33.49,5.69,32.96,1013.69,2039.99,3430.90,3322.96,3609.42,350.00,316.50,6.20,0000 0000 0000 0000 000000
2013-07-15 00:49:39,-0.02,0.05,0.00,29.09,31.60,33.46,5.75,32.88,1013.69,2039.98,3430.94,3322.97,3609.45,349.93,316.45,6.21,0000 0000 0000 0000 000000
2013-07-15 00:50:39,-0.00,0.05,0.00,29.05,31.60,33.43,5.82,33.13,1013.69,2039.99,3430.94,3322.96,3609.43,350.36,316.88,6.21,0000 0000 0000 0000 000000
2013-07-15 00:51:39,0.01,0.05,0.00,29.08,31.60,33.44,6.00,33.17,1013.69,2039.99,3430.89,3322.96,3609.41,350.38,316.88,6.22,0000 0000 0000 0000 000000
2013-07-15 00:52:40,0.01,0.05,0.00,29.09,31.59,33.43,5.85,32.92,1013.69,2039.99,3430.90,3322.96,3609.45,349.86,316.40,6.23,0000 0000 0000 0000 000000
2013-07-15 00:53:40,-0.01,0.05,0.00,29.12,31.58,33.37,5.88,33.17,1013.69,2039.99,3430.95,3322.98,3609.59,350.19,316.29,6.23,0000 0000 0000 0000 000000
2013-07-15 00:54:40,-0.02,0.05,0.00,29.10,31.58,33.47,5.79,32.42,1013.69,2039.99,3430.96,3322.99,3609.49,349.84,316.59,6.24,0000 0000 0000 0000 000000
2013-07-15 00:55:41,0.01,0.05,0.00,29.12,31.58,33.55,5.74,32.92,1013.69,2039.99,3430.90,3322.98,3609.46,349.59,316.13,6.24,0000 0000 0000 0000 000000
2013-07-15 00:56:41,0.01,0.05,0.00,29.17,31.57,33.58,5.92,32.54,1013.69,2039.99,3430.92,3322.98,3609.60,350.56,316.95,6.25,0000 0000 0000 0000 000000
2013-07-15 00:57:41,-0.02,0.05,0.00,29.17,31.57,33.58,5.79,32.38,1013.69,2039.99,3430.96,3322.99,3609.70,349.60,316.08,6.26,0000 0000 0000 0000 000000
2013-07-15 00:58:41,-0.01,0.05,0.00,29.18,31.57,33.50,5.83,32.38,1013.69,2039.99,3430.98,3322.99,3609.85,349.85,316.29,6.26,0000 0000 0000 0000 000000
2013-07-15 00:59:41,-0.02,0.05,0.00,29.18,31.57,33.51,5.95,33.29,1013.69,2039.99,3430.98,3322.99,3609.92,350.01,316.43,6.27,0000 0000 0000 0000 000000
2013-07-15 01:00:41,0.00,0.05,0.00,29.18,31.57,33.48,5.84,32.88,1013.69,2039.99,3430.97,3322.99,3609.93,350.61,316.98,6.27,0000 0000 0000 0000 000000
2013-07-15 01:01:42,0.00,0.05,0.00,29.16,31.57,33.58,5.92,33.17,1013.69,2039.99,3430.98,3322.99,3609.96,350.54,317.11,6.28,0000 0000 0000 0000 000000
2013-07-15 01:02:42,0.00,0.05,0.00,29.12,31.57,33.49,5.84,32.67,1013.69,2039.99,3430.98,3322.99,3609.97,350.55,317.24,6.29,0000 0000 0000 0000 000000
2013-07-15 01:03:42,0.00,0.05,0.00,29.07,31.56,33.52,5.83,32.42,1013.69,2039.99,3430.98,3322.99,3609.95,350.68,316.72,6.29,0000 0000 0000 0000 000000
2013-07-15 01:04:42,0.00,0.05,0.00,29.05,31.56,33.50,5.79,32.75,1013.69,2039.99,3430.98,3322.99,3609.96,349.78,316.37,6.30,0000 0000 0000 0000 000000
2013-07-15 01:05:42,0.00,0.05,0.00,29.07,31.55,33.54,5.96,32.75,1013.69,2039.99,3430.98,3322.99,3609.95,350.57,317.25,6.30,0000 0000 0000 0000 000000
2013-07-15 01:06:43,0.00,0.05,0.00,29.10,31.55,33.63,5.87,32.88,1013.69,2039.99,3430.97,3322.99,3609.97,351.10,317.53,6.31,0000 0000 0000 0000 000000
2013-07-15 01:07:43,0.00,0.05,0.00,29.08,31.55,33.57,5.76,32.42,1013.69,2039.99,3430.97,3322.99,3609.98,350.00,316.69,6.31,0000 0000 0000 0000 000000
2013-07-15 01:08:43,0.00,0.05,0.00,29.09,31.55,33.57,5.93,32.71,1013.69,2040.00,3430.99,3322.99,3609.98,350.38,316.69,6.32,0000 0000 0000 0000 000000
2013-07-15 01:09:43,0.00,0.05,0.00,29.10,31.55,33.50,5.78,32.17,1013.69,2040.00,3430.99,3322.99,3609.98,350.15,316.43,6.33,0000 0000 0000 0000 000000
2013-07-15 01:10:43,0.00,0.05,0.00,29.11,31.55,33.54,5.76,32.88,1013.69,2040.00,3430.99,3323.00,3609.99,349.45,315.98,6.33,0000 0000 0000 0000 000000
2013-07-15 01:11:43,0.00,0.05,0.00,29.11,31.55,33.54,5.82,32.38,1013.69,2040.01,3430.99,3323.00,3609.99,350.12,316.62,6.34,0000 0000 0000 0000 000000
2013-07-15 01:12:43,0.01,0.05,0.00,29.13,31.55,33.56,5.89,32.75,1013.69,2040.00,3430.99,3323.00,3609.99,350.34,316.79,6.34,0000 0000 0000 0000 000000
2013-07-15 01:13:44,0.00,0.05,0.00,29.09,31.54,33.43,5.68,32.25,1013.69,2040.01,3430.99,3323.00,3609.99,349.14,315.67,6.35,0000 0000 0000 0000 000000
2013-07-15 01:14:44,0.00,0.05,0.00,29.09,31.54,33.49,5.73,32.54,1013.69,2040.01,3430.99,3323.00,3609.99,349.53,316.10,6.36,0000 0000 0000 0000 000000
2013-07-15 01:15:44,0.00,0.05,0.00,29.13,31.53,33.48,5.86,32.46,1013.69,2040.02,3430.99,3323.00,3609.99,351.00,317.39,6.36,0000 0000 0000 0000 000000
2013-07-15 01:16:44,0.00,0.05,0.00,29.13,31.53,33.48,5.81,32.25,1013.69,2040.02,3430.99,3323.01,3609.99,349.97,316.45,6.37,0000 0000 0000 0000 000000
2013-07-15 01:17:44,0.00,0.05,0.00,29.08,31.53,33.45,5.88,32.92,1013.69,2040.02,3430.99,3323.03,3609.99,350.25,316.76,6.37,0000 0000 0000 0000 000000
2013-07-15 01:18:44,-0.01,0.05,0.00,29.05,31.52,33.53,5.85,32.79,1013.69,2040.01,3431.00,3323.03,3609.99,349.77,316.35,6.38,0000 0000 0000 0000 000000
2013-07-15 01:19:44,0.00,0.05,0.00,29.08,31.52,33.52,5.87,32.83,1013.69,2040.01,3431.00,3323.05,3609.99,350.28,317.10,6.38,0000 0000 0000 0000 000000
2013-07-15 01:20:45,0.00,0.05,0.00,29.10,31.52,33.51,5.81,32.58,1013.69,2040.02,3431.00,3323.07,3609.99,350.21,316.26,6.39,0000 0000 0000 0000 000000
2013-07-15 01:21:45,0.01,0.05,0.00,29.14,31.52,33.45,5.76,32.46,1013.69,2040.03,3431.00,3323.07,3609.99,349.73,316.11,6.40,0000 0000 0000 0000 000000
2013-07-15 01:22:45,0.00,0.05,0.00,29.13,31.52,33.45,5.86,32.96,1013.69,2040.05,3431.01,3323.08,3609.99,350.56,316.99,6.40,0000 0000 0000 0000 000000
2013-07-15 01:23:46,0.00,0.05,0.00,29.14,31.52,33.46,5.86,32.83,1013.69,2040.04,3431.00,3323.07,3609.99,350.05,316.77,6.41,0000 0000 0000 0000 000000
2013-07-15 01:24:46,0.00,0.05,0.00,29.16,31.52,33.42,5.81,32.92,1013.69,2040.06,3431.01,3323.11,3609.99,350.03,316.47,6.41,0000 0000 0000 0000 000000
2013-07-15 01:25:46,-0.01,0.05,0.00,29.16,31.52,33.48,5.88,32.92,1013.69,2040.03,3431.00,3323.09,3609.99,350.48,317.04,6.42,0000 0000 0000 0000 000000
2013-07-15 01:26:46,-0.01,0.05,0.00,29.14,31.51,33.42,5.87,32.88,1013.69,2040.02,3431.00,3323.09,3609.99,350.71,317.11,6.43,0000 0000 0000 0000 000000
2013-07-15 01:27:47,0.00,0.05,0.00,29.10,31.50,33.48,5.77,32.92,1013.69,2040.02,3431.00,3323.11,3609.99,349.73,316.26,6.43,0000 0000 0000 0000 000000
2013-07-15 01:28:47,-0.01,0.05,0.00,29.16,31.50,33.52,5.86,33.17,1013.69,2040.06,3431.00,3323.13,3609.99,350.51,316.69,6.44,0000 0000 0000 0000 000000
2013-07-15 01:29:47,0.02,0.05,0.00,29.14,31.50,33.48,5.95,32.71,1013.69,2040.11,3431.01,3323.22,3610.00,350.77,317.17,6.44,0000 0000 0000 0000 000000
2013-07-15 01:30:47,0.04,0.05,0.00,29.10,31.50,33.48,5.81,32.83,1013.69,2040.20,3431.05,3323.41,3610.02,350.33,316.82,6.45,0000 0000 0000 0000 000000
2013-07-15 01:31:47,0.01,0.05,0.00,29.09,31.50,33.50,5.92,32.83,1013.69,2040.22,3431.06,3323.49,3610.02,349.79,316.33,6.45,0000 0000 0000 0000 000000
2013-07-15 01:32:47,0.01,0.05,0.00,29.10,31.50,33.52,5.77,32.42,1013.69,2040.23,3431.03,3323.41,3610.00,348.92,315.76,6.46,0000 0000 0000 0000 000000
2013-07-15 01:33:48,0.01,0.05,0.00,29.15,31.50,33.53,5.92,33.00,1013.69,2040.13,3431.01,3323.30,3610.00,350.41,316.83,6.47,0000 0000 0000 0000 000000
2013-07-15 01:34:48,-0.05,0.05,0.00,29.16,31.50,33.45,5.96,33.13,1013.68,2040.15,3431.00,3323.33,3610.02,350.22,316.69,6.47,0000 0000 0000 0000 000000
2013-07-15 01:35:48,0.01,0.05,0.00,29.16,31.50,33.44,5.93,32.71,1013.68,2040.16,3431.00,3323.30,3610.00,350.98,317.53,6.48,0000 0000 0000 0000 000000
2013-07-15 01:36:48,-0.02,0.05,0.00,29.14,31.50,33.47,5.86,32.83,1013.69,2040.26,3431.01,3323.33,3610.00,349.98,316.46,6.48,0000 0000 0000 0000 000000
2013-07-15 01:37:48,0.09,0.05,0.00,29.12,31.49,33.55,5.83,32.71,1013.69,2040.24,3431.00,3323.33,3610.01,350.43,316.88,6.49,0000 0000 0000 0000 000000
2013-07-15 01:38:49,-0.02,0.05,0.00,29.13,31.48,33.55,5.87,32.88,1013.69,2040.24,3431.01,3323.35,3610.04,349.86,316.22,6.50,0000 0000 0000 0000 000000
2013-07-15 01:39:49,-0.01,0.05,0.00,29.15,31.48,33.54,5.62,32.58,1013.69,2040.22,3431.00,3323.26,3610.03,349.05,315.61,6.50,0000 0000 0000 0000 000000
2013-07-15 01:40:49,0.01,0.05,0.00,29.11,31.47,33.52,5.75,32.46,1013.69,2040.17,3431.00,3323.23,3610.02,349.44,315.99,6.51,0000 0000 0000 0000 000000
2013-07-15 01:41:49,-0.01,0.05,0.00,29.08,31.47,33.49,5.88,33.33,1013.69,2040.20,3431.00,3323.17,3610.00,349.96,316.49,6.51,0000 0000 0000 0000 000000
2013-07-15 01:42:49,0.06,0.05,0.00,29.06,31.47,33.44,6.00,33.17,1013.69,2040.21,3431.00,3323.16,3610.01,349.78,316.36,6.52,0000 0000 0000 0000 000000
2013-07-15 01:43:50,-0.02,0.05,0.00,29.03,31.47,33.40,5.76,33.04,1013.69,2040.29,3431.00,3323.32,3610.00,349.27,315.92,6.52,0000 0000 0000 0000 000000
2013-07-15 01:44:50,0.04,0.05,0.00,29.03,31.47,33.44,6.00,33.13,1013.69,2040.38,3431.00,3323.41,3610.03,351.07,317.55,6.53,0000 0000 0000 0000 000000
2013-07-15 01:45:50,0.02,0.05,0.00,29.04,31.47,33.43,5.93,32.88,1013.69,2040.40,3431.00,3323.28,3610.02,350.78,317.31,6.54,0000 0000 0000 0000 000000
2013-07-15 01:46:51,0.05,0.05,0.00,29.06,31.47,33.44,5.88,32.63,1013.69,2040.40,3431.00,3323.45,3610.03,350.12,316.50,6.54,0000 0000 0000 0000 000000
2013-07-15 01:47:51,-0.03,0.05,0.00,29.09,31.47,33.46,5.86,32.96,1013.68,2040.49,3431.00,3323.51,3610.02,350.25,316.96,6.55,0000 0000 0000 0000 000000
2013-07-15 01:48:51,0.07,0.05,0.00,29.11,31.47,33.43,5.81,32.42,1013.69,2040.67,3431.02,3323.66,3610.06,349.83,316.36,6.55,0000 0000 0000 0000 000000
2013-07-15 01:49:51,0.06,0.05,0.00,29.13,31.47,33.38,5.75,32.50,1013.69,2040.65,3431.03,3323.74,3610.09,349.75,316.26,6.56,0000 0000 0000 0000 000000
2013-07-15 01:50:51,-0.06,0.05,0.00,29.16,31.47,33.40,5.74,32.33,1013.69,2040.62,3431.03,3323.78,3610.11,349.62,316.49,6.57,0000 0000 0000 0000 000000
2013-07-15 01:51:51,0.01,0.05,0.00,29.14,31.46,33.46,5.78,32.75,1013.69,2040.77,3431.03,3323.89,3610.22,349.73,315.98,6.57,0000 0000 0000 0000 000000
2013-07-15 01:52:52,0.08,0.05,0.00,29.09,31.46,33.38,5.82,33.17,1013.69,2040.84,3431.03,3323.93,3610.25,349.58,316.08,6.58,0000 0000 0000 0000 000000
2013-07-15 01:53:52,0.01,0.05,0.00,29.07,31.45,33.39,5.81,32.96,1013.69,2040.85,3431.01,3323.92,3610.22,349.73,316.42,6.58,0000 0000 0000 0000 000000
2013-07-15 01:54:52,0.02,0.05,0.00,29.08,31.45,33.41,5.86,32.67,1013.69,2040.88,3431.01,3323.94,3610.28,349.56,316.26,6.59,0000 0000 0000 0000 000000
2013-07-15 01:55:53,0.01,0.05,0.00,29.04,31.45,33.40,5.85,32.63,1013.68,2040.92,3431.07,3323.97,3610.48,350.25,316.80,6.59,0000 0000 0000 0000 000000
2013-07-15 01:56:53,0.00,0.05,0.00,29.08,31.45,33.49,5.83,32.79,1013.69,2040.88,3431.07,3323.92,3610.43,349.71,316.49,6.60,0000 0000 0000 0000 000000
2013-07-15 01:57:53,-0.03,0.05,0.00,29.09,31.45,33.48,5.91,32.79,1013.68,2040.90,3431.03,3323.93,3610.44,350.00,316.24,6.61,0000 0000 0000 0000 000000
2013-07-15 01:58:53,0.04,0.05,0.00,29.10,31.45,33.43,5.92,32.83,1013.67,2040.93,3431.08,3323.97,3610.58,349.30,315.59,6.61,0000 0000 0000 0000 000000
2013-07-15 01:59:53,-0.03,0.05,0.00,29.13,31.45,33.48,5.82,32.92,1013.65,2040.93,3431.14,3323.97,3610.59,349.88,316.36,6.62,0000 0000 0000 0000 000000
2013-07-15 02:00:53,-0.00,0.05,0.00,29.11,31.45,33.48,5.96,33.04,1013.66,2040.95,3431.09,3323.97,3610.56,349.29,315.85,6.62,0000 0000 0000 0000 000000
2013-07-15 02:01:53,0.02,0.05,0.00,29.12,31.45,33.46,5.81,32.67,1013.63,2040.90,3431.08,3323.98,3610.63,350.45,316.88,6.63,0000 0000 0000 0000 000000
2013-07-15 02:02:54,-0.06,0.05,0.00,29.06,31.45,33.56,5.89,32.92,1013.56,2040.94,3431.12,3323.97,3610.79,350.32,316.80,6.64,0000 0000 0000 0000 000000
2013-07-15 02:03:54,0.02,0.05,0.00,29.04,31.45,33.52,5.97,32.88,1013.54,2040.95,3431.20,3323.96,3610.85,350.52,317.00,6.64,0000 0000 0000 0000 000000
2013-07-15 02:04:54,0.01,0.05,0.00,29.04,31.45,33.52,5.77,32.83,1013.50,2040.94,3431.14,3323.96,3610.81,349.71,316.26,6.65,0000 0000 0000 0000 000000
2013-07-15 02:05:55,-0.01,0.05,0.00,29.06,31.45,33.48,5.78,32.42,1013.49,2040.96,3431.27,3323.97,3610.84,349.41,315.97,6.65,0000 0000 0000 0000 000000
2013-07-15 02:06:55,0.00,0.05,0.00,29.08,31.44,33.46,5.90,32.88,1013.43,2040.94,3431.19,3323.96,3610.77,350.67,316.83,6.66,0000 0000 0000 0000 000000
2013-07-15 02:07:55,0.01,0.05,0.00,29.09,31.44,33.47,5.84,32.79,1013.45,2040.94,3431.10,3323.95,3610.74,350.65,317.04,6.67,0000 0000 0000 0000 000000
2013-07-15 02:08:55,0.00,0.05,0.00,29.07,31.43,33.41,5.95,32.92,1013.52,2040.96,3431.07,3323.96,3610.66,350.54,316.98,6.67,0000 0000 0000 0000 000000
2013-07-15 02:09:55,0.02,0.05,0.00,29.11,31.43,33.44,5.93,33.04,1013.54,2040.97,3431.08,3323.96,3610.71,349.94,316.03,6.68,0000 0000 0000 0000 000000
2013-07-15 02:10:56,-0.00,0.05,0.00,29.15,31.43,33.48,5.68,32.75,1013.58,2040.94,3431.07,3323.97,3610.76,349.97,316.40,6.68,0000 0000 0000 0000 000000
2013-07-15 02:11:56,-0.02,0.05,0.00,29.14,31.43,33.51,5.88,32.83,1013.61,2040.91,3431.05,3323.97,3610.70,349.92,316.38,6.69,0000 0000 0000 0000 000000
2013-07-15 02:12:56,-0.01,0.05,0.00,29.12,31.42,33.48,5.84,32.67,1013.67,2040.93,3431.05,3323.98,3610.72,350.28,316.67,6.69,0000 0000 0000 0000 000000
2013-07-15 02:13:56,0.00,0.05,0.00,29.11,31.42,33.52,5.72,32.88,1013.64,2040.97,3431.17,3323.99,3610.83,349.88,316.34,6.70,0000 0000 0000 0000 000000
2013-07-15 02:14:57,-0.00,0.05,0.00,29.11,31.42,33.46,5.88,32.79,1013.66,2040.95,3431.12,3323.99,3610.88,350.54,316.98,6.71,0000 0000 0000 0000 000000
2013-07-15 02:15:57,-0.01,0.05,0.00,29.08,31.42,33.48,5.81,32.88,1013.64,2040.96,3431.11,3323.99,3610.80,350.22,316.72,6.71,0000 0000 0000 0000 000000
2013-07-15 02:16:57,0.02,0.05,0.00,29.08,31.42,33.54,5.75,32.83,1013.65,2040.97,3431.13,3323.99,3610.83,349.85,316.38,6.72,0000 0000 0000 0000 000000
2013-07-15 02:17:57,0.00,0.05,0.00,29.09,31.42,33.55,5.92,32.75,1013.67,2040.98,3431.15,3323.99,3610.86,349.93,316.24,6.72,0000 0000 0000 0000 000000
2013-07-15 02:18:58,0.00,0.05,0.00,29.15,31.42,33.49,5.77,32.79,1013.68,2040.98,3431.09,3323.98,3610.83,350.10,316.55,6.73,0000 0000 0000 0000 000000
2013-07-15 02:19:58,0.01,0.05,0.00,29.16,31.42,33.48,5.90,32.92,1013.68,2040.98,3431.08,3323.99,3610.83,349.60,316.09,6.74,0000 0000 0000 0000 000000
2013-07-15 02:20:58,-0.00,0.05,0.00,29.16,31.42,33.45,5.88,32.83,1013.69,2040.99,3431.17,3323.97,3610.77,349.65,316.17,6.74,0000 0000 0000 0000 000000
2013-07-15 02:21:58,0.02,0.05,0.00,29.15,31.42,33.52,5.80,32.92,1013.69,2040.98,3431.08,3323.59,3610.33,349.74,316.24,6.75,0000 0000 0000 0000 000000
2013-07-15 02:22:59,0.14,0.06,0.00,29.17,31.42,33.50,5.84,32.96,1013.69,2040.98,3431.03,3323.34,3610.13,349.35,315.85,6.75,0000 0000 0000 0000 000000
2013-07-15 02:23:59,0.07,0.06,0.00,29.17,31.42,33.48,5.82,32.71,1013.69,2040.99,3431.00,3323.29,3610.08,349.88,316.34,6.76,0000 0000 0000 0000 000000
2013-07-15 02:24:59,0.01,0.06,0.00,29.12,31.42,33.49,5.86,32.88,1013.69,2040.97,3431.00,3323.26,3610.03,350.25,316.72,6.76,0000 0000 0000 0000 000000
2013-07-15 02:26:00,0.00,0.06,0.00,29.14,31.42,33.48,5.83,32.92,1013.69,2040.97,3431.00,3323.19,3610.01,349.91,316.40,6.77,0000 0000 0000 0000 000000
2013-07-15 02:27:00,0.00,0.06,0.00,29.12,31.42,33.56,5.80,32.79,1013.69,2040.97,3431.00,3323.12,3610.00,350.02,316.51,6.78,0000 0000 0000 0000 000000
2013-07-15 02:28:00,0.01,0.06,0.00,29.15,31.41,33.52,5.88,32.96,1013.69,2040.97,3431.00,3323.08,3610.00,350.30,316.93,6.78,0000 0000 0000 0000 000000
2013-07-15 02:29:00,0.01,0.06,0.00,29.09,31.41,33.51,5.81,32.92,1013.69,2040.98,3431.00,3323.12,3610.01,349.94,316.70,6.79,0000 0000 0000 0000 000000
2013-07-15 02:30:01,0.00,0.06,0.00,29.08,31.40,33.49,5.81,32.79,1013.69,2040.97,3431.00,3323.06,3610.00,350.18,316.57,6.79,0000 0000 0000 0000 000000
2013-07-15 02:31:01,0.00,0.06,0.00,29.05,31.40,33.51,5.91,32.79,1013.69,2040.97,3431.00,3323.13,3610.01,350.54,317.05,6.80,0000 0000 0000 0000 000000
2013-07-15 02:32:01,0.00,0.06,0.00,29.04,31.40,33.49,5.85,32.96,1013.69,2040.97,3431.00,3323.11,3610.00,350.12,316.98,6.81,0000 0000 0000 0000 000000
2013-07-15 02:33:01,0.00,0.06,0.00,29.05,31.40,33.51,5.76,32.88,1013.69,2040.99,3431.00,3323.17,3610.00,349.53,316.14,6.81,0000 0000 0000 0000 000000
2013-07-15 02:34:02,0.00,0.06,0.00,29.11,31.40,33.46,5.80,32.96,1013.69,2040.99,3431.00,3323.18,3610.00,350.63,317.08,6.82,0000 0000 0000 0000 000000
2013-07-15 02:35:02,0.00,0.06,0.00,29.14,31.40,33.45,5.72,32.88,1013.69,2040.99,3431.01,3323.18,3610.00,350.13,316.79,6.82,0000 0000 0000 0000 000000
2013-07-15 02:36:02,0.00,0.06,0.00,29.18,31.40,33.43,5.81,32.96,1013.69,2040.99,3431.00,3323.29,3610.00,350.43,316.81,6.83,0000 0000 0000 0000 000000
2013-07-15 02:37:02,-0.01,0.06,0.00,29.19,31.40,33.47,5.81,32.71,1013.70,2040.99,3431.01,3323.34,3610.00,349.85,316.32,6.84,0000 0000 0000 0000 000000